TimePST,TemperatureF,Dew PointF,Humidity,Sea Level PressureIn,VisibilityMPH,Wind Direction,Wind SpeedMPH,Gust SpeedMPH,PrecipitationIn,Events,Conditions,WindDirDegrees,DateUTC
12:53 AM,39.9,30.0,68,30.11,10.0,WSW,11.5,-,N/A,,Clear,250,2013-02-17 08:53:00
1:53 AM,39.0,28.9,67,30.11,10.0,WSW,15.0,-,N/A,,Clear,240,2013-02-17 09:53:00
2:53 AM,34.0,28.0,79,30.12,10.0,East,4.6,-,N/A,,Clear,100,2013-02-17 10:53:00
3:53 AM,30.0,25.0,82,30.13,10.0,Calm,Calm,-,N/A,,Clear,0,2013-02-17 11:53:00
4:53 AM,28.9,25.0,85,30.14,10.0,Calm,Calm,-,N/A,,Clear,0,2013-02-17 12:53:00
5:53 AM,24.1,21.0,88,30.16,10.0,Calm,Calm,-,N/A,,Clear,0,2013-02-17 13:53:00
6:53 AM,23.0,21.0,92,30.16,10.0,Calm,Calm,-,N/A,,Clear,0,2013-02-17 14:53:00
7:53 AM,28.9,25.0,85,30.17,10.0,Calm,Calm,-,N/A,,Clear,0,2013-02-17 15:53:00
8:53 AM,42.1,30.0,62,30.17,10.0,SSW,11.5,-,N/A,,Clear,210,2013-02-17 16:53:00
10:53 AM,48.9,27.0,43,30.18,10.0,SW,10.4,-,N/A,,Clear,230,2013-02-17 18:53:00
11:53 AM,51.1,27.0,39,30.17,10.0,WSW,12.7,-,N/A,,Clear,250,2013-02-17 19:53:00
12:53 PM,52.0,26.1,37,30.15,10.0,SW,12.7,-,N/A,,Clear,230,2013-02-17 20:53:00
1:53 PM,52.0,25.0,35,30.14,10.0,SSW,12.7,-,N/A,,Clear,210,2013-02-17 21:53:00
2:53 PM,52.0,25.0,35,30.13,10.0,SW,9.2,16.1,N/A,,Clear,230,2013-02-17 22:53:00
3:53 PM,51.1,26.1,38,30.13,10.0,SSW,12.7,-,N/A,,Clear,210,2013-02-17 23:53:00
5:53 PM,44.1,26.1,49,30.13,10.0,South,6.9,-,N/A,,Clear,190,2013-02-18 01:53:00
6:53 PM,42.1,26.1,53,30.13,10.0,South,5.8,-,N/A,,Clear,180,2013-02-18 02:53:00
7:53 PM,41.0,27.0,57,30.14,10.0,SSE,6.9,-,N/A,,Clear,160,2013-02-18 03:53:00
9:53 PM,37.0,26.1,65,30.14,10.0,SSW,3.5,-,N/A,,Clear,200,2013-02-18 05:53:00
10:53 PM,36.0,25.0,64,30.14,10.0,SSW,9.2,-,N/A,,Clear,210,2013-02-18 06:53:00
11:53 PM,33.1,25.0,72,30.13,10.0,NE,4.6,-,N/A,,Clear,50,2013-02-18 07:53:00